This is the latest recevied weather packets stored in our database for station/object KK6MIG-13. If no packets are shown the sender has not sent any weather packets the latest 10 day(s).
| Time | Temp. | Humidity | Pressure | Rain* | Wind** | Luminosity | Snow |
|---|---|---|---|---|---|---|---|
| 1788044631 | 16.67° C | 32% | 1013.3 hPa | 0 mm | - | 675 W/m² | - |
| 1788044570 | 16.67° C | 33% | 1013.3 hPa | 0 mm | - | 677 W/m² | - |
| 1788044505 | 16.67° C | 34% | 1013.3 hPa | 0 mm | - | 680 W/m² | - |
| 1788044445 | 17.22° C | 33% | 1013.4 hPa | 0 mm | - | 684 W/m² | - |
| 1788044384 | 17.22° C | 29% | 1013.3 hPa | 0 mm | - | 682 W/m² | - |
| 1788044324 | 16.67° C | 27% | 1013.3 hPa | 0 mm | - | 691 W/m² | - |
| 1788044264 | 16.67° C | 28% | 1013.3 hPa | 0 mm | - | 694 W/m² | - |
| 1788044198 | 16.67° C | 30% | 1013.4 hPa | 0 mm | - | 696 W/m² | - |
| 1788044155 | 16.67° C | 33% | 1013.3 hPa | 0 mm | - | 698 W/m² | - |
| 1788044151 | 16.67° C | 30% | 1013.4 hPa | 0 mm | - | 710 W/m² | - |
| 1788044147 | 16.67° C | 30% | 1013.4 hPa | 0 mm | - | 705 W/m² | - |
| 1788043958 | 16.67° C | 32% | 1013.3 hPa | 0 mm | - | 707 W/m² | - |
| 1788043895 | 16.67° C | 35% | 1013.4 hPa | 0 mm | - | 705 W/m² | - |
| 1788043835 | 16.67° C | 35% | 1013.3 hPa | 0 mm | - | 708 W/m² | - |
| 1788043774 | 16.67° C | 32% | 1013.4 hPa | 0 mm | - | 710 W/m² | - |
| 1788043714 | 16.67° C | 31% | 1013.4 hPa | 0 mm | - | 715 W/m² | - |
| 1788043652 | 16.67° C | 31% | 1013.4 hPa | 0 mm | - | 717 W/m² | - |
| 1788043586 | 16.67° C | 29% | 1013.4 hPa | 0 mm | - | 719 W/m² | - |
| 1788043526 | 16.67° C | 32% | 1013.4 hPa | 0 mm | - | 724 W/m² | - |
| 1788043475 | 17.22° C | 35% | 1013.5 hPa | 0 mm | - | 731 W/m² | - |
| 1788043471 | 16.67° C | 36% | 1013.5 hPa | 0 mm | - | 724 W/m² | - |
| 1788043347 | 17.22° C | 32% | 1013.5 hPa | 0 mm | - | 728 W/m² | - |
| 1788043284 | 17.22° C | 36% | 1013.5 hPa | 0 mm | - | 729 W/m² | - |
| 1788043221 | 17.22° C | 31% | 1013.5 hPa | 0 mm | - | 733 W/m² | - |
| 1788043161 | 17.22° C | 31% | 1013.5 hPa | 0 mm | - | 738 W/m² | - |
* Rain latest hour (hover to see other rain measurements)
** Current wind speed in m/s (hover to see current wind gust speed)